Track NAVSTAR 75 (USA 265) now! NAVSTAR 75 (USA 265) is classified as:
1 41019U 15062A 21108.14443031 .00000039 00000-0 00000-0 0 9993 2 41019 55.5122 104.6094 0067219 214.7758 144.7947 2.00563823 40009